User: anonymous   Login
Location: Kawakawa
(35.3830°S, 174.0670°E)
Time: 16:46:04
(UTC+13:00)
Language:

H-2A R/B - Orbit

View from above orbital plane
View from above orbital plane
View from above satellite
View from above satellite

Ground track
Ground track

The orbit data is extracted from the following two-line orbital elements,

1 27601U 02056E   19076.77265361  .00000042  00000-0  30126-4 0  9991
2 27601  98.2886 129.4947 0071899 198.6707 270.3545 14.31883088849198
Epoch (UTC): 17 March 2019 18:32:37
Eccentricity: 0.0071899
inclination: 98.2886°
perigee height: 734 km
apogee height: 837 km
right ascension of ascending node: 129.4947°
argument of perigee: 198.6707°
revolutions per day: 14.31883088
mean anomaly at epoch: 270.3545°
orbit number at epoch: 84919

The dashed part of the orbit path shows where the satellite is in the earth's shadow,  

DLR